Home   Weather   McAllen   Past weeks
Flag for USA

Past Weather in McAllen, Texas, USA — Yesterday and Last 2 Weeks

Now
67 °F

Fog.


Feels Like: 67 °F
Forecast: 70 / 63 °F
Wind: 7 mph from Northeast

Location: Miller International Airport

Current Time: Mar 20, 2019 at 10:54:24 am

Latest Report: Mar 20, 2019 at 10:10 am


Visibility: 6 mi

Pressure: 30.19 "Hg

Humidity: 93%

Dew Point: 65 °F

Location of McAllenLocation

Past Weather in McAllen — Graph

°F

McAllen Temperature Yesterday

Maximum temperature yesterday: 64 °F (at 11:33 am)
Minimum temperature yesterday: 56 °F (at 3:53 am)
Average temperature yesterday: 61 °F

High & Low Weather Summary for the Past Weeks

 TemperatureHumidityPressure
High98 °F (Mar 13, 4:53 pm)100% (Mar 8, 5:21 am)30.53 "Hg (Mar 8, 5:21 am)
Low43 °F (Mar 5, 9:53 am)26% (Mar 13, 4:53 pm)29.57 "Hg (Mar 13, 4:53 pm)
Average68 °F73%30.07 "Hg
* Reported Mar 5 9:53 am — Mar 20 10:10 am, McAllen. Weather by CustomWeather, © 2019

Note: Actual official high and low records may vary slightly from our data, if they occured in-between our weather recording intervals... More about our weather records

Advertising

McAllen Weather History for the Previous 24 Hours

Scroll right to see more
 ConditionsComfort  
Time TempWeatherWind HumidityBarometerVisibility
10:10 am
Wed, Mar 20
67 °FFog.7 mph93%30.19 "Hg6 mi
9:53 am67 °FFog.6 mph97%30.18 "Hg5 mi
8:53 am65 °FFog.3 mph100%30.16 "Hg2 mi
8:38 am65 °FLight rain. Fog.5 mph97%30.17 "Hg2 mi
7:53 am64 °FFog.5 mph100%30.14 "Hg4 mi
7:21 am64 °FFog.No wind100%30.14 "Hg5 mi
6:53 am64 °FFog.3 mph100%30.13 "Hg5 mi
5:53 am64 °FFog.No wind100%30.11 "Hg5 mi
5:43 am64 °FFog.No wind100%30.12 "Hg4 mi
5:17 am64 °FLight rain. Fog.No wind100%30.12 "Hg3 mi
4:53 am64 °FLight rain. Fog.No wind100%30.11 "Hg4 mi
4:39 am64 °FLight rain. Fog.No wind100%30.12 "Hg4 mi
4:16 am64 °FFog.No wind100%30.12 "Hg6 mi
3:53 am64 °FLight rain. Fog.5 mph100%30.12 "Hg2 mi
3:35 am64 °FLight rain. Fog.No wind97%30.14 "Hg2 mi
3:18 am64 °FLight rain. Fog.No wind97%30.14 "Hg2 mi
2:53 am64 °FLight rain. Fog.No wind97%30.14 "Hg2 mi
2:36 am64 °FLight rain. Fog.No wind97%30.15 "Hg2 mi
2:10 am64 °FFog.No wind97%30.15 "Hg5 mi
1:53 am64 °FFog.No wind97%30.15 "Hg6 mi
12:53 am63 °FMostly cloudy.No wind100%30.16 "Hg8 mi
12:02 am63 °FLight rain. Fog.5 mph97%30.17 "Hg4 mi
10:53 pm
Tue, Mar 19
63 °FLight rain. Fog.6 mph97%30.18 "Hg4 mi
9:53 pm64 °FLight rain. Fog.5 mph97%30.17 "Hg4 mi
9:16 pm64 °FLight rain. Fog.6 mph97%30.17 "Hg3 mi
9:04 pm64 °FLight rain. Fog.5 mph97%30.16 "Hg2 mi
7:53 pm64 °FMostly cloudy.5 mph97%30.14 "Hg10 mi
6:53 pm64 °FLight rain. Fog.5 mph97%30.13 "Hg2 mi
6:10 pm64 °FFog.5 mph97%30.14 "Hg3 mi
4:53 pm63 °FFog.6 mph97%30.14 "Hg4 mi
4:19 pm63 °FLight rain. Fog.8 mph97%30.15 "Hg3 mi
3:53 pm63 °FLight rain. Fog.7 mph97%30.16 "Hg2 mi
3:19 pm63 °FLight rain. Fog.8 mph93%30.17 "Hg4 mi
2:53 pm63 °FLight rain. Fog.6 mph97%30.18 "Hg4 mi
2:37 pm62 °FLight rain. Fog.6 mph100%30.19 "Hg1 mi
1:53 pm62 °FLight rain. Fog.6 mph96%30.21 "Hg2 mi
12:53 pm62 °FLight rain. Fog.7 mph96%30.23 "Hg2 mi
12:28 pm63 °FLight rain. Fog.7 mph90%30.24 "Hg2 mi
11:58 am63 °FLight rain. Overcast.8 mph87%30.24 "Hg7 mi
11:33 am64 °FMostly cloudy.9 mph78%30.24 "Hg10 mi
10:53 am61 °FOvercast.9 mph81%30.24 "Hg10 mi
Weather by CustomWeather, © 2019

See weather overview